ARIANE 40 R/B (20443 NORAD) Tracking and Keplerian Element Data

This shows tracking and keplerian element data for the satellite.

Feedback or suggestion? Click here.




ElementValue
Catalog20443
NameARIANE 40 R/B
Epoch Orbit67509
Epoch Day15.77819709
Epoch Year2022
RAAN85.2616
Inclination98.5046
Eccentricity0.0011347
Argument of Perigee65.2366
Mean Anonmoly295.0001
Mean Motion14.38167023
Decay Rate6.6E-07
L11 20443U 90005H 22015.77819709 .00000066 00000+0 36111-4 0 9992
L22 20443 98.5046 85.2616 0011347 65.2366 295.0001 14.38167023675098

Live tracking and technical data element details for ARIANE 40 R/B (NORAD 20443). ARIANE 40 R/B can be tracked NOW for your location showing map with azimuth and elevation plus other details from your city location.

Track the satellite on the map from your city or location and see movement details for azimuth, elevation, latitude, longitude, range, height, and movement on the map or in text.







IsCatalogInMostPopularTable: catalog: 20443, numindb: 123
Update: records affected: 1



GetName: 20443 ARIANE 40 R/B

Hit Count: updated at: Mon, 17 Jan 2022 00:42:15 GMT